This is the latest recevied weather packets stored in our database for station/object N3NDE. If no packets are shown the sender has not sent any weather packets the latest 1 day(s).
| Time | Temp. | Humidity | Pressure | Rain* | Wind** | Luminosity | Snow |
|---|---|---|---|---|---|---|---|
| 1777992086 | 3.33° C | 90% | 1013.4 hPa | 7.87 mm | 0 m/s | 25 W/m² | - |
| 1777991783 | 3.33° C | 89% | 1013.5 hPa | 7.87 mm | 0 m/s | 23 W/m² | - |
| 1777991480 | 3.33° C | 89% | 1013.5 hPa | 7.87 mm | 0 m/s | 19 W/m² | - |
| 1777991177 | 3.89° C | 89% | 1013.1 hPa | 6.1 mm | 0 m/s | 15 W/m² | - |
| 1777990875 | 3.89° C | 89% | 1013 hPa | 4.83 mm | 0.45 m/s, 73° | 13 W/m² | - |
| 1777990572 | 3.89° C | 88% | 1013.3 hPa | 6.1 mm | 0 m/s | 12 W/m² | - |
| 1777990268 | 4.44° C | 87% | 1012.9 hPa | 6.1 mm | 0.89 m/s, 96° | 9 W/m² | - |
| 1777989965 | 5° C | 86% | 1013.3 hPa | 6.1 mm | 0.45 m/s, 68° | 7 W/m² | - |
| 1777989663 | 5° C | 89% | 1013 hPa | 6.1 mm | 0 m/s | 6 W/m² | - |
| 1777989358 | 5° C | 89% | 1012.8 hPa | 6.1 mm | 0.45 m/s, 80° | 5 W/m² | - |
| 1777989055 | 5.56° C | 89% | 1012.8 hPa | 4.83 mm | 0 m/s | 5 W/m² | - |
| 1777988750 | 5.56° C | 87% | 1012.8 hPa | 3.05 mm | 0 m/s | 5 W/m² | - |
| 1777988449 | 5.56° C | 86% | 1012.8 hPa | 3.05 mm | 0.45 m/s, 74° | 5 W/m² | - |
| 1777988145 | 5.56° C | 89% | 1012.5 hPa | 3.05 mm | 0 m/s | 4 W/m² | - |
| 1777987841 | 5.56° C | 90% | 1012.7 hPa | 4.32 mm | 0 m/s | 4 W/m² | - |
| 1777987538 | 5.56° C | 89% | 1012.7 hPa | 6.1 mm | 0 m/s | 4 W/m² | - |
| 1777987235 | 5.56° C | 88% | 1012.5 hPa | 4.83 mm | 0 m/s | 4 W/m² | - |
| 1777986932 | 5.56° C | 89% | 1012.4 hPa | 4.83 mm | 0 m/s | 3 W/m² | - |
| 1777986630 | 5.56° C | 88% | 1012.5 hPa | 6.1 mm | 0 m/s | 3 W/m² | - |
| 1777986327 | 5.56° C | 87% | 1012.3 hPa | 4.83 mm | 0 m/s | 2 W/m² | - |
| 1777986026 | 5.56° C | 86% | 1012.1 hPa | 1.78 mm | 0 m/s | 2 W/m² | - |
| 1777985722 | 5.56° C | 87% | 1012.3 hPa | 1.27 mm | 0 m/s | 2 W/m² | - |
| 1777985419 | 5.56° C | 85% | 1012.3 hPa | 1.27 mm | 0 m/s | 1 W/m² | - |
| 1777985115 | 5.56° C | 85% | 1012.1 hPa | 1.78 mm | 0 m/s | 1 W/m² | - |
| 1777984812 | 6.11° C | 83% | 1011.8 hPa | 1.78 mm | 0.89 m/s, 54° | 1 W/m² | - |
* Rain latest hour (hover to see other rain measurements)
** Current wind speed in m/s (hover to see current wind gust speed)